| time (UTC) | temp F | wind direction | speed MPH | gust MPH | rain 1hr in | rain 24hr in | rain mn in | humidity % | barometer mb |
| 20260831143029 | 77 | 170 | 0.0 | 2.0 | 0.00 | 0.05 | 0.00 | 81 | 1019.1 |
| 20260831141525 | 76 | 284 | 0.0 | 2.0 | 0.00 | 0.05 | 0.00 | 83 | 1019.2 |
| 20260831140023 | 75 | 88 | 0.0 | 2.0 | 0.00 | 0.05 | 0.00 | 84 | 1019.2 |
| 20260831134521 | 74 | 89 | 0.0 | 2.0 | 0.00 | 0.05 | 0.00 | 84 | 1019.4 |
| 20260831133017 | 74 | 88 | 0.0 | 2.0 | 0.00 | 0.05 | 0.00 | 85 | 1019.5 |
| 20260831131516 | 73 | 88 | 0.0 | 2.0 | 0.00 | 0.05 | 0.00 | 88 | 1019.6 |
| 20260831130011 | 72 | 86 | 0.0 | 2.0 | 0.00 | 0.05 | 0.00 | 88 | 1019.4 |
| 20260831124507 | 71 | 87 | 0.0 | 2.0 | 0.00 | 0.05 | 0.00 | 90 | 1019.6 |
| 20260831123005 | 71 | 86 | 0.0 | 2.0 | 0.00 | 0.05 | 0.00 | 91 | 1019.3 |
| 20260831121514 | 70 | 86 | 0.0 | 2.0 | 0.00 | 0.05 | 0.00 | 92 | 1019.2 |
| 20260831120010 | 70 | 85 | 0.0 | 1.0 | 0.00 | 0.05 | 0.00 | 93 | 1019.1 |
| 20260831114502 | 69 | 85 | 0.0 | 0.0 | 0.00 | 0.05 | 0.00 | 93 | 1018.9 |
| 20260831113002 | 69 | 85 | 0.0 | 0.0 | 0.00 | 0.05 | 0.00 | 93 | 1019.0 |
| 20260831111602 | 69 | 85 | 0.0 | 0.0 | 0.00 | 0.05 | 0.00 | 92 | 1018.9 |
| 20260831110059 | 69 | 85 | 0.0 | 1.0 | 0.00 | 0.05 | 0.00 | 93 | 1018.7 |
| 20260831104557 | 69 | 86 | 0.0 | 0.0 | 0.00 | 0.05 | 0.00 | 93 | 1018.5 |
| 20260831103056 | 69 | 86 | 0.0 | 2.0 | 0.00 | 0.05 | 0.00 | 93 | 1018.6 |
| 20260831101610 | 69 | 79 | 0.0 | 0.0 | 0.00 | 0.05 | 0.00 | 93 | 1018.3 |
| 20260831100054 | 69 | 79 | 0.0 | 0.0 | 0.00 | 0.05 | 0.00 | 94 | 1018.1 |
| 20260831094605 | 69 | 79 | 0.0 | 0.0 | 0.00 | 0.05 | 0.00 | 93 | 1018.0 |
| 20260831093053 | 69 | 79 | 0.0 | 0.0 | 0.00 | 0.05 | 0.00 | 93 | 1018.1 |
| 20260831091553 | 69 | 79 | 0.0 | 0.0 | 0.00 | 0.05 | 0.00 | 94 | 1018.0 |
| 20260831090051 | 68 | 79 | 0.0 | 0.0 | 0.00 | 0.05 | 0.00 | 93 | 1018.1 |
| 20260831084554 | 68 | 79 | 0.0 | 0.0 | 0.00 | 0.05 | 0.00 | 93 | 1018.1 |
| 20260831083054 | 69 | 79 | 0.0 | 2.0 | 0.00 | 0.05 | 0.00 | 92 | 1018.1 |
| 20260831081556 | 69 | 58 | 0.0 | 0.0 | 0.00 | 0.05 | 0.00 | 93 | 1017.9 |
| 20260831080047 | 69 | 58 | 0.0 | 1.0 | 0.00 | 0.05 | 0.00 | 93 | 1017.7 |
| 20260831074545 | 69 | 84 | 0.0 | 0.0 | 0.00 | 0.05 | 0.00 | 93 | 1017.6 |
| 20260831073044 | 69 | 86 | 0.0 | 0.0 | 0.00 | 0.05 | 0.00 | 92 | 1017.6 |
| 20260831071543 | 69 | 86 | 0.0 | 0.0 | 0.00 | 0.05 | 0.00 | 92 | 1017.4 |
| 20260831070107 | 69 | 86 | 0.0 | 0.0 | 0.00 | 0.05 | 0.00 | 92 | 1017.5 |
| 20260831064541 | 69 | 86 | 0.0 | 0.0 | 0.00 | 0.05 | 0.00 | 92 | 1017.6 |
| 20260831063040 | 70 | 86 | 0.0 | 0.0 | 0.00 | 0.05 | 0.00 | 92 | 1017.7 |
| 20260831061538 | 70 | 86 | 0.0 | 0.0 | 0.00 | 0.05 | 0.00 | 91 | 1017.8 |
| 20260831060046 | 70 | 86 | 0.0 | 0.0 | 0.00 | 0.05 | 0.00 | 91 | 1017.9 |
| 20260831054536 | 70 | 86 | 0.0 | 0.0 | 0.00 | 0.05 | 0.00 | 91 | 1017.9 |
| 20260831053035 | 71 | 86 | 0.0 | 0.0 | 0.00 | 0.05 | 0.00 | 90 | 1017.9 |
| 20260831051547 | 71 | 86 | 0.0 | 0.0 | 0.00 | 0.05 | 0.00 | 91 | 1017.9 |
| 20260831050036 | 71 | 86 | 0.0 | 0.0 | 0.00 | 0.05 | 0.00 | 91 | 1018.0 |
| 20260831044530 | 71 | 86 | 0.0 | 0.0 | 0.00 | 0.05 | 0.00 | 90 | 1018.1 |
| 20260831043027 | 71 | 86 | 0.0 | 0.0 | 0.00 | 0.05 | 0.00 | 90 | 1018.3 |
| 20260831041532 | 71 | 86 | 0.0 | 0.0 | 0.00 | 0.05 | 0.00 | 89 | 1018.3 |
| 20260831040039 | 72 | 86 | 0.0 | 0.0 | 0.00 | 0.05 | 0.00 | 89 | 1018.2 |
| 20260831034520 | 72 | 86 | 0.0 | 0.0 | 0.00 | 0.05 | 0.05 | 89 | 1018.3 |
| 20260831033020 | 73 | 86 | 0.0 | 0.0 | 0.00 | 0.05 | 0.05 | 87 | 1018.3 |
| 20260831031522 | 73 | 86 | 0.0 | 0.0 | 0.00 | 0.05 | 0.05 | 87 | 1018.3 |
| 20260831030019 | 73 | 86 | 0.0 | 2.0 | 0.00 | 0.05 | 0.05 | 86 | 1018.3 |
| 20260831024518 | 73 | 85 | 0.0 | 2.0 | 0.00 | 0.05 | 0.05 | 86 | 1018.3 |
| 20260831023024 | 73 | 86 | 0.0 | 2.0 | 0.00 | 0.05 | 0.05 | 87 | 1018.2 |
| 20260831021538 | 73 | 86 | 0.0 | 2.0 | 0.00 | 0.05 | 0.05 | 90 | 1018.3 |
| 20260831020018 | 73 | 84 | 0.0 | 0.0 | 0.00 | 0.05 | 0.05 | 91 | 1018.5 |
| 20260831014516 | 72 | 84 | 0.0 | 0.0 | 0.00 | 0.05 | 0.05 | 91 | 1018.5 |
| 20260831013016 | 72 | 84 | 0.0 | 0.0 | 0.00 | 0.05 | 0.05 | 90 | 1018.4 |
| 20260831011515 | 72 | 84 | 0.0 | 0.0 | 0.00 | 0.05 | 0.05 | 89 | 1018.4 |
| 20260831010032 | 73 | 84 | 0.0 | 0.0 | 0.00 | 0.05 | 0.05 | 89 | 1018.3 |
| 20260831004515 | 73 | 84 | 0.0 | 0.0 | 0.00 | 0.05 | 0.05 | 89 | 1018.1 |
| 20260831003014 | 73 | 84 | 0.0 | 0.0 | 0.00 | 0.05 | 0.05 | 88 | 1017.7 |
| 20260831001527 | 74 | 84 | 0.0 | 0.0 | 0.00 | 0.05 | 0.05 | 87 | 1017.4 |
| 20260831000012 | 74 | 84 | 0.0 | 0.0 | 0.00 | 0.05 | 0.05 | 87 | 1017.3 |
| 20260830234511 | 75 | 84 | 0.0 | 2.0 | 0.00 | 0.05 | 0.05 | 87 | 1017.4 |
| 20260830233015 | 76 | 84 | 0.0 | 0.0 | 0.00 | 0.05 | 0.05 | 86 | 1017.3 |
| 20260830231518 | 76 | 84 | 0.0 | 2.0 | 0.00 | 0.05 | 0.05 | 85 | 1017.2 |
| 20260830230009 | 76 | 84 | 0.0 | 0.0 | 0.00 | 0.05 | 0.05 | 82 | 1017.3 |
| 20260830224509 | 76 | 84 | 0.0 | 2.0 | 0.00 | 0.05 | 0.05 | 84 | 1017.5 |
| 20260830223015 | 77 | 84 | 0.0 | 2.0 | 0.00 | 0.05 | 0.05 | 85 | 1017.7 |
| 20260830221507 | 76 | 355 | 0.0 | 2.0 | 0.01 | 0.05 | 0.05 | 88 | 1017.3 |
| 20260830220008 | 76 | 343 | 0.0 | 2.0 | 0.05 | 0.05 | 0.05 | 86 | 1017.2 |
| 20260830214506 | 76 | 196 | 0.0 | 2.0 | 0.05 | 0.05 | 0.05 | 87 | 1016.8 |
| 20260830213006 | 77 | 196 | 0.0 | 2.0 | 0.05 | 0.05 | 0.05 | 82 | 1017.3 |
| 20260830211513 | 81 | 223 | 0.0 | 11.0 | 0.04 | 0.04 | 0.04 | 73 | 1017.6 |
| 20260830210007 | 86 | 76 | 0.0 | 2.0 | 0.00 | 0.00 | 0.00 | 67 | 1016.8 |
| 20260830204504 | 87 | 86 | 0.0 | 2.0 | 0.00 | 0.00 | 0.00 | 65 | 1016.8 |
| 20260830203003 | 86 | 57 | 0.0 | 2.0 | 0.00 | 0.00 | 0.00 | 66 | 1016.9 |
| 20260830201601 | 85 | 87 | 0.0 | 2.0 | 0.00 | 0.00 | 0.00 | 67 | 1016.9 |
| 20260830194558 | 86 | 343 | 0.0 | 4.0 | 0.00 | 0.00 | 0.00 | 62 | 1017.3 |
| 20260830193057 | 87 | 107 | 1.0 | 3.0 | 0.00 | 0.00 | 0.00 | 64 | 1017.4 |
| 20260830191558 | 85 | 110 | 0.0 | 2.0 | 0.00 | 0.00 | 0.00 | 66 | 1017.5 |
| 20260830190052 | 83 | 108 | 0.0 | 2.0 | 0.00 | 0.00 | 0.00 | 69 | 1017.7 |
| 20260830184551 | 84 | 107 | 0.0 | 2.0 | 0.00 | 0.00 | 0.00 | 71 | 1018.0 |
| 20260830183150 | 85 | 108 | 0.0 | 2.0 | 0.00 | 0.00 | 0.00 | 68 | 1018.3 |
| 20260830181554 | 86 | 109 | 0.0 | 2.0 | 0.00 | 0.00 | 0.00 | 63 | 1018.3 |
| 20260830180104 | 87 | 108 | 0.0 | 3.0 | 0.00 | 0.00 | 0.00 | 63 | 1018.2 |
| 20260830174552 | 89 | 108 | 0.0 | 4.0 | 0.00 | 0.00 | 0.00 | 60 | 1018.4 |
| 20260830173059 | 89 | 186 | 0.0 | 2.0 | 0.00 | 0.00 | 0.00 | 58 | 1018.7 |
| 20260830171550 | 87 | 115 | 0.0 | 4.0 | 0.00 | 0.00 | 0.00 | 61 | 1019.2 |
| 20260830170037 | 87 | 215 | 0.0 | 2.0 | 0.00 | 0.00 | 0.00 | 60 | 1019.4 |
| 20260830164534 | 88 | 114 | 0.0 | 4.0 | 0.00 | 0.00 | 0.00 | 60 | 1019.5 |
| 20260830163031 | 87 | 164 | 0.0 | 2.0 | 0.00 | 0.00 | 0.00 | 64 | 1019.6 |
| 20260830161526 | 86 | 178 | 0.0 | 2.0 | 0.00 | 0.00 | 0.00 | 64 | 1019.8 |
| 20260830160022 | 84 | 190 | 0.0 | 3.0 | 0.00 | 0.00 | 0.00 | 67 | 1020.1 |
| 20260830154520 | 83 | 129 | 0.0 | 3.0 | 0.00 | 0.00 | 0.00 | 68 | 1020.2 |
| 20260830153016 | 81 | 187 | 0.0 | 4.0 | 0.00 | 0.00 | 0.00 | 70 | 1020.3 |
| 20260830151518 | 80 | 163 | 0.0 | 4.0 | 0.00 | 0.00 | 0.00 | 71 | 1020.2 |
| 20260830150008 | 79 | 190 | 0.0 | 3.0 | 0.00 | 0.00 | 0.00 | 74 | 1020.2 |
| 20260830144510 | 79 | 219 | 0.0 | 4.0 | 0.00 | 0.00 | 0.00 | 74 | 1020.2 |